Volver al catálogo

STARLINK-31098

ActivoComunicacionesVLEO
NORAD 58716·PAYLOAD·🇺🇸 United States

Lanzado Jan 3, 2024 desde Vandenberg Space Force Base

Loading…

Próximos Pases (próximas 24 horas)

TLE

ActualizadoSource: CelesTrak SupGP

Época: Sep 15, 2026, 02:51 UTC

1 58716C 24002M   26258.11923611 -.00026495  00000+0 -78287-3 0  2582
2 58716  53.1587  68.8449 0001204  89.2862 318.0670 15.34401316    13

Sigue STARLINK-31098 en tiempo real con AllMySat

Download on the App Store